Regional Weather Roundup
Issued by NWS

Home | Current Version | Previous Version | Graphics & Text | Print | Product List | Glossary On
Versions: 1 2 3 4 5 6 7 8 9 10 11 12 13 14 15 16 17 18 19 20 21 22 23 24 25 26 27 28 29 30 31 32 33 34 35 36 37 38 39 40 41 42 43 44 45 46 47 48 49 50
272
ASUS43 KLOT 211603
RWRIL

ILLINOIS REGIONAL WEATHER ROUNDUP
NATIONAL WEATHER SERVICE CHICAGO/ROMEOVILLE IL
1000 AM CST SUN JAN 21 2018

NOTE: "FAIR" INDICATES FEW OR NO CLOUDS BELOW 12,000 FEET WITH NO
SIGNIFICANT WEATHER AND/OR OBSTRUCTIONS TO VISIBILITY.

* THESE STATIONS ARE NOT UNDER NWS QUALITY CONTROL. THEY ALSO MAY NOT
  REPORT WEATHER SUCH AS PRECIPITATION OR FOG.

ILZ001-002-007-009-015-016-024-211700-
NORTHWEST ILLINOIS

CITY           SKY/WX    TMP DP  RH WIND       PRES   REMARKS
MOLINE         CLOUDY    43  39  86 E5        29.92S
STERLING*      PTSUNNY   39  37  93 E5        29.95S FOG
SAVANNA*       CLOUDY    40  37  90 NE7       29.94F FOG
$$

ILZ003-004-008-010-011-017-018-211700-
NORTH CENTRAL ILLINOIS

CITY           SKY/WX    TMP DP  RH WIND       PRES   REMARKS
ROCKFORD       CLOUDY    39  36  89 E3        29.98R FOG
FREEPORT*      CLOUDY    37  36  96 CALM      29.97S FOG
ROCHELLE*      CLOUDY    39  38  98 SE5       29.96S FOG
DE KALB*       FOG       38  38  99 SE6       29.97S VSB 1/4 WCI  33
PERU*          CLOUDY    38  38  97 SE5       29.97S FOG     WCI  35
$$

ILZ005-006-012>014-019>023-211700-
NORTHEAST ILLINOIS

CITY           SKY/WX    TMP DP  RH WIND       PRES   REMARKS
CHICAGO-OHARE  FOG       40  39  97 CALM      29.97S VSB 1/2
CHICAGO-MIDWAY CLOUDY    42  41  96 S3        29.98S FOG
AURORA         FOG       39  39 100 E5        29.97S VSB<1/4
LANSING*       CLOUDY    41  41 100 S7        29.99S FOG
JOLIET*        CLOUDY    41  41 100 SE5       29.99R FOG
WAUKEGAN       CLOUDY    38  36  92 SE3       29.98R FOG
DUPAGE AIRPORT FOG       39  39 100 SE6       29.97R VSB<1/4 WCI  35
KANKAKEE*      FOG      N/A N/A N/A SE6       30.00S VSB<1/4
WHEELING       CLOUDY    42  40  92 S3        30.00R FOG
MORRIS*        FOG       40  39  98 SE5       29.97R VSB 1/4
NORTHERLY ISL    N/A     40  38  93 S3          N/A
$$

LMZ740>746-211700-
SOUTHERN LAKE MICHIGAN

STATION/POSITION SKY/WX   TEMP    WIND        PRES    VSBY  WAVE
                          AIR SEA DIR/SP/G                  HT/PER
                          (F)     (DEG/KT/KT) (MB)    (MI)  (FT/S)
HARRISON CRIB              39     160/  7/  8   N/A
BURNHAM HARBOR             39     160/  4/  8   N/A
CALUMET HARBOR             40     180/  3/  6 1014.8R
BURNS HARBOR               40     190/  9/ 13 1016.6R
MICHIGAN CITY              39     140/  7/  9   N/A
$$

ILZ025>027-034>036-040-047-049-050-058-095>099-211700-
WEST-CENTRAL ILLINOIS

CITY           SKY/WX    TMP DP  RH WIND       PRES   REMARKS
QUINCY         CLOUDY    49  46  90 SE6       29.89F
GALESBURG*     CLOUDY    43  42  95 SE5       29.93S
MACOMB*        CLOUDY    45  43  95 S7        29.94S FOG
JACKSONVILLE*  CLOUDY    51  49  91 S12       29.93S
PITTSFIELD*    CLOUDY    49  48  94 SE7       29.93S
$$

ILZ028>032-037-038-041>044-048-051>054-059>061-211700-
CENTRAL ILLINOIS

CITY           SKY/WX    TMP DP  RH WIND       PRES   REMARKS
BLOOMINGTON    LGT RAIN  43  43 100 S9        29.97S VSB 1/4
DECATUR        FOG       48  48 100 S13       29.98S VSB 1/2
PEORIA         CLOUDY    45  43  93 SE3       29.95S FOG
LACON*         CLOUDY    42  41  97 SE3       29.95S FOG
LINCOLN*       CLOUDY    46  46 100 S8        29.96S FOG
SPRINGFIELD    CLOUDY    54  51  90 S12       29.96S FOG
TAYLORVILLE    FOG       49  49 100 S13       29.97S VSB 1/4
$$

ILZ033-039-045-046-055>057-062-063-211700-
EAST-CENTRAL ILLINOIS

CITY           SKY/WX    TMP DP  RH WIND       PRES   REMARKS
CHAMPAIGN      FOG       44  44 100 S9        29.99S VSB<1/4
DANVILLE*      FOG       43  43 100 S6        29.99R VSB<1/4
RANTOUL*       LGT RAIN  41  41  99 SE7       29.99S VSB<1/4
MATTOON        FOG       47  47 100 S10       30.00R VSB 1/4
$$

ILZ079-100>102-211700-
SOUTHWEST ILLINOIS

CITY           SKY/WX    TMP DP  RH WIND       PRES   REMARKS
ALTON          PTSUNNY   55  54  94 S13       29.97S
BELLEVILLE     CLOUDY    55  52  92 S10       29.97S
CAHOKIA*       PTSUNNY   55  52  89 S9        29.96S FOG
SPARTA*        CLOUDY    51  51 100 S12G17    30.01S FOG
$$

ILZ064>066-069>071-074>076-080>082-084>086-088>090-092>094-211700-
SOUTH-CENTRAL ILLINOIS

CITY           SKY/WX    TMP DP  RH WIND       PRES   REMARKS
CARBONDALE     CLOUDY    53  52  96 S14       30.04R
CAIRO*         CLOUDY    49  48  95 S9        30.08S
EFFINGHAM*     FOG       48  48 100 SE6       30.04S VSB 1/4
MT. VERNON     FOG       50  50 100 S7        30.04R VSB 1/2
CENTRALIA*     FOG       51  51 100 S10       30.02R VSB 3/4
SALEM*         FOG       52  51  96 S8        30.03R VSB 1/2
METROPOLIS*    CLOUDY    52  49  89 S7        30.09S
$$

ILZ067-068-072-073-078-083-087-091-211700-
SOUTHEAST ILLINOIS

CITY           SKY/WX    TMP DP  RH WIND       PRES   REMARKS
LAWRENCEVILLE  CLOUDY    45  43  93 S13       30.06R
FLORA*         FOG       50  49  98 S6        30.04R VSB 1/4
FAIRFIELD*     FOG       49  49 100 S7        30.04R VSB 1
HARRISBURG*    CLOUDY    54  52  95 SW14      30.06S
ROBINSON*      CLOUDY    47  46  99 S8        30.06R FOG
CARMI*         CLOUDY    46  44  96 S7        30.05F
$$

ABBREVIATIONS USED IN REMARKS
   TC - TEMPERATURE IN CELSIUS
  WCI - WIND CHILL INDEX
   HX - HEAT INDEX
  VSB - VISIBILITY
$$





USA.gov is the U.S. government's official web portal to all federal, state and local government web resources and services.